Find JCSAT 3A

NORAD ID: 29272 Int'l Des: 2006-033 Owner: JSAT Country: J operational
HEOCIRCULARGSOGEO

Live Position

Loading 3D Globe...

About JCSAT 3A

Description loading...

Upcoming Passes

Passes for default location (London). Set your location on the main map for personalized predictions.

Altitude History

Loading altitude history...

Two-Line Element Set

1 29272U 06033A 26109.60308748 -.00000343 00000-0 00000-0 0 9999
2 29272 0.0096 266.9724 0002042 132.6015 153.2504 1.00271060 47155
Epoch: Apr 19, 2026 • Age: 7 hours

Current Status

Altitude 35788.8 km
Velocity 3.07 km/s
Sub-Earth Point 0.02°N, 127.98°E
Launch Date Aug 11, 2006
Age 19.6 years
Type other

Technical Details

Classification Payload
Mass 4048.00 kg
Dry Mass 1858.00 kg
Total Mass 4048.00 kg
Length 5.50 m
Diameter 2.20 m
Span 26.90 m
Shape Box + 2 Pan
Manufacturer LMCSS
Bus Type A2100AX
Phase Status In Orbit
Owner/State JSAT/J

Most Searched